Location: Degersen
(52.2871°N, 9.5716°E)
Time: 20:35:40
(UTC+00:00)

Cosmos 864 Rocket - Pass Details

Date: 20 January 2026
Orbit: 953 x 990 km, 82.9° (Epoch: 15 February)

Event Time Altitude Azimuth Distance (km) Brightness Sun altitude
Rises 05:56:56 0° 195° (SSW) 3,617 7.5 -12.2°
Reaches altitude 10° 05:59:25 10° 197° (SSW) 2,676 6.8 -11.8°
Maximum altitude 06:05:32 73° 282° (WNW) 1,002 4.4 -10.9°
Drops below altitude 10° 06:11:43 10° 8° (N) 2,704 6.7 -10.1°
Sets 06:14:15 0° 10° (N) 3,658 7.4 -9.7°
